| time (UTC) | temp F | wind direction | speed knots | gust knots | rain 1hr in | rain 24hr in | rain mn in | humidity % | barometer mb |
| 20260508100204 | 57 | 84 | 0.0 | 5.2 | 0.00 | 0.00 | 0.00 | 67 | 1016.5 |
| 20260508095205 | 56 | 46 | 0.0 | 6.1 | 0.00 | 0.00 | 0.00 | 68 | 1016.7 |
| 20260508094204 | 56 | 42 | 0.0 | 6.1 | 0.00 | 0.00 | 0.00 | 69 | 1016.8 |
| 20260508093205 | 56 | 71 | 2.6 | 7.0 | 0.00 | 0.00 | 0.00 | 70 | 1017.0 |
| 20260508092705 | 56 | 67 | 0.0 | 7.0 | 0.00 | 0.00 | 0.00 | 71 | 1017.1 |
| 20260508091704 | 56 | 78 | 2.6 | 7.0 | 0.00 | 0.00 | 0.00 | 74 | 1017.4 |
| 20260508091204 | 56 | 54 | 0.9 | 5.2 | 0.00 | 0.00 | 0.00 | 75 | 1017.5 |
| 20260508090705 | 55 | 80 | 1.7 | 5.2 | 0.00 | 0.00 | 0.00 | 76 | 1017.6 |
| 20260508085705 | 54 | 77 | 0.0 | 5.2 | 0.00 | 0.00 | 0.00 | 76 | 1017.8 |
| 20260508085205 | 54 | 68 | 3.5 | 5.2 | 0.00 | 0.00 | 0.00 | 78 | 1017.9 |
| 20260508084704 | 54 | 154 | 3.5 | 5.2 | 0.00 | 0.00 | 0.00 | 79 | 1018.0 |
| 20260508084205 | 53 | 39 | 0.9 | 5.2 | 0.00 | 0.00 | 0.00 | 79 | 1018.0 |
| 20260508083705 | 53 | 85 | 0.0 | 5.2 | 0.00 | 0.00 | 0.00 | 82 | 1018.1 |
| 20260508082704 | 52 | 32 | 0.0 | 1.7 | 0.00 | 0.00 | 0.00 | 84 | 1018.1 |
| 20260508082205 | 52 | 32 | 0.0 | 1.7 | 0.00 | 0.00 | 0.00 | 85 | 1018.1 |
| 20260508081704 | 51 | 111 | 0.0 | 0.0 | 0.00 | 0.00 | 0.00 | 87 | 1018.1 |
| 20260508081204 | 51 | 111 | 0.0 | 0.0 | 0.00 | 0.00 | 0.00 | 90 | 1018.1 |
| 20260508080204 | 50 | 111 | 0.0 | 0.0 | 0.00 | 0.00 | 0.00 | 94 | 1018.2 |
| 20260508075704 | 50 | 111 | 0.0 | 0.0 | 0.00 | 0.00 | 0.00 | 95 | 1018.2 |
| 20260508075205 | 49 | 111 | 0.0 | 0.0 | 0.00 | 0.00 | 0.00 | 96 | 1018.1 |
| 20260508074704 | 48 | 111 | 0.0 | 0.0 | 0.00 | 0.00 | 0.00 | 98 | 1018.1 |
| 20260508074205 | 48 | 111 | 0.0 | 0.0 | 0.00 | 0.00 | 0.00 | 98 | 1018.1 |
| 20260508073205 | 46 | 111 | 0.0 | 0.0 | 0.00 | 0.00 | 0.00 | 98 | 1018.0 |
| 20260508072705 | 46 | 111 | 0.0 | 0.0 | 0.00 | 0.00 | 0.00 | 98 | 1018.0 |
| 20260508072205 | 46 | 111 | 0.0 | 0.0 | 0.00 | 0.00 | 0.00 | 98 | 1018.0 |
| 20260508071704 | 45 | 111 | 0.0 | 0.0 | 0.00 | 0.00 | 0.00 | 98 | 1018.0 |
| 20260508071205 | 44 | 111 | 0.0 | 0.0 | 0.00 | 0.00 | 0.00 | 98 | 1018.0 |
| 20260508070705 | 43 | 111 | 0.0 | 0.0 | 0.00 | 0.00 | 0.00 | 98 | 1018.0 |
| 20260508070205 | 43 | 111 | 0.0 | 0.0 | 0.00 | 0.00 | 0.00 | 98 | 1018.0 |
| 20260508065705 | 42 | 111 | 0.0 | 0.0 | 0.00 | 0.00 | 0.00 | 96 | 1018.0 |
| 20260508065205 | 42 | 111 | 0.0 | 0.0 | 0.00 | 0.00 | 0.00 | 96 | 1018.0 |
| 20260508064704 | 41 | 111 | 0.0 | 0.0 | 0.00 | 0.00 | 0.00 | 96 | 1017.9 |
| 20260508064205 | 40 | 111 | 0.0 | 0.0 | 0.00 | 0.00 | 0.00 | 96 | 1017.9 |
| 20260508063205 | 40 | 111 | 0.0 | 0.0 | 0.00 | 0.00 | 0.00 | 95 | 1017.9 |
| 20260508062705 | 40 | 111 | 0.0 | 0.0 | 0.00 | 0.00 | 0.00 | 95 | 1017.9 |
| 20260508061705 | 40 | 111 | 0.0 | 0.0 | 0.00 | 0.00 | 0.00 | 95 | 1017.7 |
| 20260508061205 | 39 | 111 | 0.0 | 0.0 | 0.00 | 0.00 | 0.00 | 95 | 1017.7 |
| 20260508060705 | 39 | 111 | 0.0 | 0.0 | 0.00 | 0.00 | 0.00 | 94 | 1017.7 |
| 20260508060204 | 39 | 111 | 0.0 | 0.0 | 0.00 | 0.00 | 0.00 | 94 | 1017.7 |
| 20260508055704 | 38 | 111 | 0.0 | 0.0 | 0.00 | 0.00 | 0.00 | 94 | 1017.6 |
| 20260508055205 | 38 | 111 | 0.0 | 0.0 | 0.00 | 0.00 | 0.00 | 94 | 1017.6 |
| 20260508054704 | 38 | 111 | 0.0 | 0.0 | 0.00 | 0.00 | 0.00 | 94 | 1017.5 |
| 20260508054205 | 38 | 111 | 0.0 | 0.0 | 0.00 | 0.00 | 0.00 | 93 | 1017.6 |
| 20260508053204 | 37 | 111 | 0.0 | 0.0 | 0.00 | 0.00 | 0.00 | 93 | 1017.5 |
| 20260508052705 | 37 | 111 | 0.0 | 0.0 | 0.00 | 0.00 | 0.00 | 93 | 1017.4 |
| 20260508052228 | 37 | 111 | 0.0 | 0.0 | 0.00 | 0.00 | 0.00 | 93 | 1017.3 |
| 20260508051204 | 37 | 111 | 0.0 | 0.0 | 0.00 | 0.00 | 0.00 | 93 | 1017.3 |
| 20260508050704 | 37 | 111 | 0.0 | 0.0 | 0.00 | 0.00 | 0.00 | 93 | 1017.3 |
| 20260508050205 | 37 | 111 | 0.0 | 0.0 | 0.00 | 0.00 | 0.00 | 93 | 1017.2 |
| 20260508045205 | 37 | 111 | 0.0 | 0.0 | 0.00 | 0.00 | 0.00 | 92 | 1017.3 |
| 20260508044705 | 37 | 111 | 0.0 | 0.0 | 0.00 | 0.00 | 0.00 | 92 | 1017.4 |
| 20260508044204 | 37 | 111 | 0.0 | 0.0 | 0.00 | 0.00 | 0.00 | 92 | 1017.4 |
| 20260508043705 | 37 | 111 | 0.0 | 0.0 | 0.00 | 0.00 | 0.00 | 92 | 1017.3 |
| 20260508042205 | 38 | 111 | 0.0 | 0.0 | 0.00 | 0.00 | 0.00 | 92 | 1017.1 |
| 20260508040705 | 38 | 111 | 0.0 | 0.0 | 0.00 | 0.00 | 0.00 | 92 | 1016.9 |
| 20260508040204 | 38 | 111 | 0.0 | 0.0 | 0.00 | 0.00 | 0.00 | 92 | 1016.9 |
| 20260508035705 | 38 | 111 | 0.0 | 0.0 | 0.00 | 0.00 | 0.00 | 92 | 1016.9 |
| 20260508035205 | 38 | 111 | 0.0 | 0.0 | 0.00 | 0.00 | 0.00 | 92 | 1016.9 |
| 20260508034705 | 38 | 111 | 0.0 | 0.0 | 0.00 | 0.00 | 0.00 | 92 | 1016.9 |
| 20260508034205 | 38 | 111 | 0.0 | 0.0 | 0.00 | 0.00 | 0.00 | 92 | 1016.8 |
| 20260508033705 | 39 | 111 | 0.0 | 0.0 | 0.00 | 0.00 | 0.00 | 92 | 1016.8 |
| 20260508033205 | 39 | 111 | 0.0 | 0.0 | 0.00 | 0.00 | 0.00 | 92 | 1016.7 |
| 20260508032205 | 39 | 111 | 0.0 | 0.0 | 0.00 | 0.00 | 0.00 | 90 | 1016.6 |
| 20260508031704 | 39 | 111 | 0.0 | 0.0 | 0.00 | 0.00 | 0.00 | 90 | 1016.6 |
| 20260508031205 | 39 | 111 | 0.0 | 0.0 | 0.00 | 0.00 | 0.00 | 90 | 1016.5 |
| 20260508030704 | 39 | 111 | 0.0 | 0.0 | 0.00 | 0.00 | 0.00 | 90 | 1016.5 |
| 20260508030204 | 39 | 111 | 0.0 | 0.0 | 0.00 | 0.00 | 0.00 | 90 | 1016.5 |
| 20260508025719 | 39 | 111 | 0.0 | 0.0 | 0.00 | 0.00 | 0.00 | 90 | 1016.5 |
| 20260508025205 | 39 | 111 | 0.0 | 0.0 | 0.00 | 0.00 | 0.00 | 89 | 1016.5 |
| 20260508024204 | 40 | 111 | 0.0 | 0.0 | 0.00 | 0.00 | 0.00 | 89 | 1016.5 |
| 20260508023704 | 40 | 111 | 0.0 | 0.0 | 0.00 | 0.00 | 0.00 | 89 | 1016.4 |
| 20260508023204 | 40 | 111 | 0.0 | 0.0 | 0.00 | 0.00 | 0.00 | 89 | 1016.3 |
| 20260508022704 | 40 | 111 | 0.0 | 0.0 | 0.00 | 0.00 | 0.00 | 89 | 1016.3 |
| 20260508022205 | 40 | 111 | 0.0 | 0.0 | 0.00 | 0.00 | 0.00 | 89 | 1016.2 |
| 20260508021705 | 40 | 111 | 0.0 | 0.0 | 0.00 | 0.00 | 0.00 | 89 | 1016.2 |
| 20260508021205 | 41 | 111 | 0.0 | 0.0 | 0.00 | 0.00 | 0.00 | 87 | 1016.2 |
| 20260508020205 | 41 | 111 | 0.0 | 0.0 | 0.00 | 0.00 | 0.00 | 86 | 1016.3 |
| 20260508015704 | 41 | 111 | 0.0 | 0.0 | 0.00 | 0.00 | 0.00 | 86 | 1016.3 |
| 20260508015205 | 41 | 111 | 0.0 | 0.0 | 0.00 | 0.00 | 0.00 | 86 | 1016.2 |
| 20260508014704 | 41 | 111 | 0.0 | 0.0 | 0.00 | 0.00 | 0.00 | 86 | 1016.2 |
| 20260508014205 | 42 | 111 | 0.0 | 0.0 | 0.00 | 0.00 | 0.00 | 86 | 1016.2 |
| 20260508013705 | 42 | 111 | 0.0 | 0.0 | 0.00 | 0.00 | 0.00 | 85 | 1016.2 |
| 20260508013205 | 42 | 111 | 0.0 | 0.0 | 0.00 | 0.00 | 0.00 | 85 | 1016.1 |
| 20260508012705 | 43 | 111 | 0.0 | 0.0 | 0.00 | 0.00 | 0.00 | 85 | 1016.0 |
| 20260508012205 | 43 | 111 | 0.0 | 0.0 | 0.00 | 0.00 | 0.00 | 85 | 1016.0 |
| 20260508011704 | 43 | 111 | 0.0 | 0.0 | 0.00 | 0.00 | 0.00 | 85 | 1016.0 |
| 20260508010704 | 44 | 111 | 0.0 | 0.0 | 0.00 | 0.00 | 0.00 | 85 | 1016.1 |
| 20260508010205 | 44 | 111 | 0.0 | 0.0 | 0.00 | 0.00 | 0.00 | 85 | 1016.1 |
| 20260508005704 | 44 | 111 | 0.0 | 0.0 | 0.00 | 0.00 | 0.00 | 85 | 1016.1 |
| 20260508005205 | 45 | 111 | 0.0 | 0.0 | 0.00 | 0.00 | 0.00 | 85 | 1016.0 |
| 20260508004704 | 45 | 111 | 0.0 | 0.0 | 0.00 | 0.00 | 0.00 | 84 | 1016.1 |
| 20260508004205 | 45 | 111 | 0.0 | 0.0 | 0.00 | 0.00 | 0.00 | 84 | 1016.0 |
| 20260508003704 | 45 | 111 | 0.0 | 0.0 | 0.00 | 0.00 | 0.00 | 83 | 1016.0 |
| 20260508003204 | 46 | 111 | 0.0 | 0.0 | 0.00 | 0.00 | 0.00 | 83 | 1016.0 |
| 20260508002704 | 46 | 111 | 0.0 | 0.0 | 0.00 | 0.00 | 0.00 | 83 | 1016.0 |
| 20260508002204 | 46 | 111 | 0.0 | 0.0 | 0.00 | 0.00 | 0.00 | 83 | 1015.9 |
| 20260508001705 | 47 | 111 | 0.0 | 0.0 | 0.00 | 0.00 | 0.00 | 83 | 1015.9 |
| 20260508001204 | 47 | 111 | 0.0 | 0.0 | 0.00 | 0.00 | 0.00 | 83 | 1015.9 |
| 20260508000705 | 47 | 111 | 0.0 | 0.0 | 0.00 | 0.00 | 0.00 | 82 | 1015.9 |
| 20260508000205 | 47 | 111 | 0.0 | 3.5 | 0.00 | 0.00 | 0.00 | 82 | 1015.9 |
| 20260507235704 | 47 | 111 | 0.0 | 3.5 | 0.00 | 0.00 | 0.00 | 82 | 1015.9 |
| 20260507235205 | 48 | 111 | 0.0 | 3.5 | 0.00 | 0.00 | 0.00 | 82 | 1015.9 |
| 20260507234704 | 48 | 111 | 0.0 | 3.5 | 0.00 | 0.00 | 0.00 | 82 | 1015.9 |
| 20260507234205 | 48 | 111 | 1.7 | 2.6 | 0.00 | 0.00 | 0.00 | 82 | 1015.9 |
| 20260507233205 | 48 | 132 | 0.0 | 2.6 | 0.00 | 0.00 | 0.00 | 81 | 1015.8 |
| 20260507232705 | 48 | 132 | 0.9 | 3.5 | 0.00 | 0.00 | 0.00 | 81 | 1015.8 |
| 20260507232205 | 48 | 146 | 0.0 | 4.3 | 0.00 | 0.00 | 0.00 | 81 | 1015.8 |
| 20260507231705 | 48 | 196 | 0.0 | 4.3 | 0.00 | 0.00 | 0.00 | 79 | 1015.7 |
| 20260507231205 | 48 | 196 | 0.0 | 4.3 | 0.00 | 0.00 | 0.00 | 79 | 1015.8 |
| 20260507230705 | 48 | 196 | 0.9 | 6.1 | 0.00 | 0.00 | 0.00 | 79 | 1015.8 |
| 20260507230227 | 48 | 219 | 0.0 | 6.1 | 0.00 | 0.00 | 0.00 | 79 | 1015.8 |
| 20260507225705 | 49 | 129 | 0.0 | 6.1 | 0.00 | 0.00 | 0.00 | 79 | 1015.7 |
| 20260507225205 | 49 | 184 | 2.6 | 4.3 | 0.00 | 0.00 | 0.00 | 79 | 1015.7 |
| 20260507224705 | 49 | 213 | 0.0 | 4.3 | 0.00 | 0.00 | 0.00 | 78 | 1015.7 |
| 20260507224205 | 49 | 188 | 0.0 | 4.3 | 0.00 | 0.00 | 0.00 | 78 | 1015.6 |
| 20260507223704 | 49 | 104 | 0.0 | 3.5 | 0.00 | 0.00 | 0.00 | 78 | 1015.5 |
| 20260507222205 | 49 | 154 | 0.0 | 6.1 | 0.00 | 0.00 | 0.00 | 77 | 1015.4 |
| 20260507221205 | 49 | 163 | 2.6 | 5.2 | 0.00 | 0.00 | 0.00 | 77 | 1015.4 |
| 20260507220705 | 49 | 213 | 3.5 | 2.6 | 0.00 | 0.00 | 0.00 | 77 | 1015.4 |
| 20260507220205 | 49 | 108 | 0.9 | 0.0 | 0.00 | 0.00 | 0.00 | 77 | 1015.4 |
| 20260507215704 | 49 | 61 | 0.0 | 0.0 | 0.00 | 0.00 | 0.00 | 77 | 1015.4 |
| 20260507215204 | 49 | 61 | 0.0 | 2.6 | 0.00 | 0.00 | 0.00 | 76 | 1015.4 |
| 20260507214205 | 49 | 61 | 0.0 | 6.1 | 0.00 | 0.00 | 0.00 | 76 | 1015.4 |
| 20260507213205 | 49 | 195 | 0.0 | 6.1 | 0.00 | 0.00 | 0.00 | 75 | 1015.2 |
| 20260507212704 | 50 | 195 | 0.9 | 6.1 | 0.00 | 0.00 | 0.00 | 75 | 1015.2 |
| 20260507211704 | 50 | 208 | 0.0 | 6.1 | 0.00 | 0.00 | 0.00 | 74 | 1015.1 |
| 20260507210705 | 50 | 188 | 1.7 | 5.2 | 0.00 | 0.00 | 0.00 | 73 | 1015.1 |
| 20260507210205 | 50 | 130 | 0.9 | 5.2 | 0.00 | 0.00 | 0.00 | 73 | 1015.0 |
| 20260507205706 | 51 | 227 | 0.0 | 5.2 | 0.00 | 0.00 | 0.00 | 72 | 1014.9 |
| 20260507205204 | 51 | 192 | 0.0 | 6.1 | 0.00 | 0.00 | 0.00 | 72 | 1014.8 |
| 20260507204705 | 51 | 180 | 3.5 | 7.8 | 0.00 | 0.00 | 0.00 | 71 | 1014.7 |
| 20260507204205 | 51 | 220 | 2.6 | 7.8 | 0.00 | 0.00 | 0.00 | 71 | 1014.6 |
| 20260507203704 | 51 | 194 | 0.9 | 7.8 | 0.00 | 0.00 | 0.00 | 71 | 1014.5 |
| 20260507203205 | 52 | 188 | 3.5 | 8.7 | 0.00 | 0.00 | 0.00 | 70 | 1014.4 |
| 20260507202705 | 52 | 262 | 3.5 | 8.7 | 0.00 | 0.00 | 0.00 | 70 | 1014.4 |
| 20260507200705 | 53 | 243 | 5.2 | 7.0 | 0.00 | 0.00 | 0.00 | 69 | 1014.1 |
| 20260507200204 | 53 | 241 | 3.5 | 7.0 | 0.00 | 0.00 | 0.00 | 69 | 1014.0 |
| 20260507195704 | 53 | 258 | 3.5 | 7.8 | 0.00 | 0.00 | 0.00 | 69 | 1014.0 |
| 20260507195205 | 53 | 210 | 4.3 | 8.7 | 0.00 | 0.00 | 0.00 | 69 | 1013.8 |
| 20260507194704 | 53 | 250 | 3.5 | 8.7 | 0.00 | 0.00 | 0.00 | 68 | 1013.8 |
| 20260507194205 | 53 | 243 | 4.3 | 8.7 | 0.00 | 0.00 | 0.00 | 68 | 1013.8 |
| 20260507193704 | 53 | 209 | 2.6 | 8.7 | 0.00 | 0.00 | 0.00 | 68 | 1013.8 |
| 20260507192705 | 53 | 229 | 4.3 | 8.7 | 0.00 | 0.00 | 0.00 | 67 | 1013.6 |
| 20260507192205 | 54 | 209 | 4.3 | 9.6 | 0.00 | 0.00 | 0.00 | 67 | 1013.6 |
| 20260507191705 | 54 | 257 | 5.2 | 9.6 | 0.00 | 0.00 | 0.00 | 67 | 1013.6 |
| 20260507191205 | 54 | 137 | 3.5 | 9.6 | 0.00 | 0.00 | 0.00 | 67 | 1013.5 |
| 20260507185205 | 54 | 205 | 4.3 | 8.7 | 0.00 | 0.00 | 0.00 | 67 | 1013.4 |
| 20260507184705 | 54 | 253 | 5.2 | 8.7 | 0.00 | 0.00 | 0.00 | 67 | 1013.3 |
| 20260507184204 | 54 | 139 | 2.6 | 9.6 | 0.00 | 0.00 | 0.00 | 66 | 1013.3 |
| 20260507183204 | 55 | 212 | 6.1 | 11.3 | 0.00 | 0.00 | 0.00 | 66 | 1013.2 |
| 20260507182704 | 55 | 198 | 5.2 | 11.3 | 0.00 | 0.00 | 0.00 | 64 | 1013.2 |
| 20260507182206 | 55 | 202 | 7.0 | 11.3 | 0.00 | 0.00 | 0.00 | 64 | 1013.2 |
| 20260507181704 | 55 | 229 | 7.8 | 11.3 | 0.00 | 0.00 | 0.00 | 64 | 1013.1 |
| 20260507181204 | 55 | 225 | 7.0 | 10.4 | 0.00 | 0.00 | 0.00 | 64 | 1013.1 |
| 20260507180704 | 55 | 251 | 6.1 | 10.4 | 0.00 | 0.00 | 0.00 | 64 | 1013.0 |
| 20260507180204 | 55 | 260 | 4.3 | 12.2 | 0.00 | 0.00 | 0.00 | 64 | 1012.9 |
| 20260507175704 | 55 | 195 | 1.7 | 12.2 | 0.00 | 0.00 | 0.00 | 64 | 1012.9 |
| 20260507175204 | 55 | 239 | 6.1 | 12.2 | 0.00 | 0.00 | 0.00 | 63 | 1012.8 |
| 20260507174705 | 56 | 205 | 5.2 | 10.4 | 0.00 | 0.00 | 0.00 | 63 | 1012.8 |
| 20260507174205 | 56 | 225 | 5.2 | 10.4 | 0.00 | 0.00 | 0.00 | 63 | 1012.8 |
| 20260507173204 | 56 | 225 | 5.2 | 13.0 | 0.00 | 0.00 | 0.00 | 62 | 1012.7 |
| 20260507172705 | 56 | 192 | 3.5 | 13.0 | 0.00 | 0.00 | 0.00 | 61 | 1012.8 |
| 20260507172204 | 56 | 274 | 4.3 | 11.3 | 0.00 | 0.00 | 0.00 | 61 | 1012.8 |
| 20260507171705 | 56 | 236 | 7.8 | 12.2 | 0.00 | 0.00 | 0.00 | 60 | 1012.7 |
| 20260507171204 | 56 | 220 | 7.8 | 12.2 | 0.00 | 0.00 | 0.00 | 60 | 1012.6 |
| 20260507170704 | 56 | 246 | 7.0 | 13.9 | 0.00 | 0.00 | 0.00 | 61 | 1012.6 |
| 20260507170204 | 56 | 285 | 6.1 | 13.9 | 0.00 | 0.00 | 0.00 | 60 | 1012.6 |
| 20260507165705 | 56 | 257 | 8.7 | 13.9 | 0.00 | 0.00 | 0.00 | 60 | 1012.5 |
| 20260507165205 | 56 | 243 | 8.7 | 13.9 | 0.00 | 0.00 | 0.00 | 60 | 1012.6 |
| 20260507164205 | 57 | 234 | 7.8 | 14.8 | 0.00 | 0.00 | 0.00 | 60 | 1012.5 |
| 20260507163704 | 57 | 172 | 9.6 | 14.8 | 0.00 | 0.00 | 0.00 | 60 | 1012.4 |
| 20260507163204 | 57 | 237 | 7.8 | 15.6 | 0.00 | 0.00 | 0.00 | 60 | 1012.3 |
| 20260507162705 | 57 | 233 | 4.3 | 16.5 | 0.00 | 0.00 | 0.00 | 60 | 1012.3 |
| 20260507161704 | 57 | 239 | 7.0 | 16.5 | 0.00 | 0.00 | 0.00 | 59 | 1012.3 |
| 20260507160704 | 58 | 215 | 9.6 | 11.3 | 0.00 | 0.00 | 0.00 | 58 | 1012.2 |
| 20260507160204 | 58 | 240 | 5.2 | 11.3 | 0.00 | 0.00 | 0.00 | 58 | 1012.0 |
| 20260507155205 | 58 | 217 | 5.2 | 11.3 | 0.00 | 0.00 | 0.00 | 57 | 1011.9 |
| 20260507154704 | 58 | 261 | 4.3 | 10.4 | 0.00 | 0.00 | 0.00 | 57 | 1011.7 |
| 20260507154205 | 58 | 170 | 7.8 | 9.6 | 0.00 | 0.00 | 0.00 | 57 | 1011.7 |
| 20260507153705 | 59 | 255 | 4.3 | 9.6 | 0.00 | 0.00 | 0.00 | 56 | 1011.7 |
| 20260507153204 | 59 | 237 | 4.3 | 9.6 | 0.00 | 0.00 | 0.00 | 57 | 1011.7 |
| 20260507152704 | 59 | 144 | 3.5 | 11.3 | 0.00 | 0.00 | 0.00 | 58 | 1011.7 |
| 20260507152204 | 59 | 262 | 4.3 | 11.3 | 0.00 | 0.00 | 0.00 | 58 | 1011.7 |
| 20260507151704 | 59 | 195 | 6.1 | 13.0 | 0.00 | 0.00 | 0.00 | 59 | 1011.7 |
| 20260507151204 | 59 | 180 | 2.6 | 13.0 | 0.00 | 0.00 | 0.00 | 58 | 1011.7 |
| 20260507150705 | 59 | 178 | 7.0 | 13.0 | 0.00 | 0.00 | 0.00 | 58 | 1011.7 |
| 20260507150205 | 59 | 167 | 5.2 | 10.4 | 0.00 | 0.00 | 0.00 | 57 | 1011.8 |
| 20260507145704 | 60 | 191 | 4.3 | 9.6 | 0.00 | 0.00 | 0.00 | 58 | 1011.8 |
| 20260507145205 | 60 | 247 | 5.2 | 9.6 | 0.00 | 0.00 | 0.00 | 58 | 1011.8 |
| 20260507144705 | 59 | 226 | 4.3 | 9.6 | 0.00 | 0.00 | 0.00 | 58 | 1011.8 |
| 20260507144205 | 59 | 178 | 3.5 | 11.3 | 0.00 | 0.00 | 0.00 | 58 | 1011.8 |
| 20260507143205 | 59 | 142 | 3.5 | 11.3 | 0.00 | 0.00 | 0.00 | 59 | 1011.9 |
| 20260507142705 | 58 | 251 | 2.6 | 11.3 | 0.00 | 0.00 | 0.00 | 57 | 1012.0 |
| 20260507142205 | 58 | 111 | 6.1 | 11.3 | 0.00 | 0.00 | 0.00 | 56 | 1012.0 |
| 20260507141704 | 59 | 215 | 5.2 | 8.7 | 0.00 | 0.00 | 0.00 | 57 | 1012.1 |
| 20260507141204 | 59 | 209 | 5.2 | 8.7 | 0.00 | 0.00 | 0.00 | 56 | 1012.1 |
| 20260507140704 | 59 | 230 | 4.3 | 8.7 | 0.00 | 0.00 | 0.00 | 56 | 1012.1 |
| 20260507140205 | 59 | 275 | 4.3 | 8.7 | 0.00 | 0.00 | 0.00 | 57 | 1012.1 |
| 20260507135704 | 58 | 282 | 3.5 | 9.6 | 0.00 | 0.00 | 0.00 | 58 | 1012.2 |
| 20260507135205 | 58 | 205 | 6.1 | 9.6 | 0.00 | 0.00 | 0.00 | 58 | 1012.1 |
| 20260507134705 | 58 | 208 | 1.7 | 9.6 | 0.00 | 0.00 | 0.00 | 59 | 1012.2 |
| 20260507134205 | 58 | 250 | 3.5 | 13.0 | 0.00 | 0.00 | 0.00 | 59 | 1012.2 |
| 20260507133204 | 59 | 220 | 1.7 | 13.0 | 0.00 | 0.00 | 0.00 | 59 | 1012.3 |
| 20260507132705 | 59 | 219 | 3.5 | 13.0 | 0.00 | 0.00 | 0.00 | 60 | 1012.3 |
| 20260507131705 | 58 | 188 | 4.3 | 13.0 | 0.00 | 0.00 | 0.00 | 62 | 1012.5 |
| 20260507130704 | 57 | 233 | 6.1 | 13.0 | 0.00 | 0.00 | 0.00 | 63 | 1012.5 |
| 20260507130204 | 57 | 172 | 4.3 | 12.2 | 0.00 | 0.00 | 0.00 | 63 | 1012.5 |
| 20260507125704 | 57 | 243 | 7.8 | 10.4 | 0.00 | 0.00 | 0.00 | 63 | 1012.5 |
| 20260507125204 | 57 | 261 | 5.2 | 10.4 | 0.00 | 0.00 | 0.00 | 62 | 1012.5 |
| 20260507124704 | 57 | 240 | 5.2 | 12.2 | 0.00 | 0.00 | 0.00 | 62 | 1012.5 |
| 20260507123705 | 58 | 196 | 5.2 | 12.2 | 0.00 | 0.00 | 0.00 | 61 | 1012.5 |
| 20260507123204 | 58 | 260 | 3.5 | 12.2 | 0.00 | 0.00 | 0.00 | 60 | 1012.5 |
| 20260507122205 | 59 | 219 | 6.1 | 12.2 | 0.00 | 0.00 | 0.00 | 62 | 1012.7 |
| 20260507121732 | 58 | 144 | 5.2 | 11.3 | 0.00 | 0.00 | 0.00 | 62 | 1012.8 |
| 20260507120705 | 58 | 277 | 3.5 | 12.2 | 0.00 | 0.00 | 0.00 | 62 | 1012.8 |
| 20260507120204 | 58 | 241 | 7.0 | 12.2 | 0.00 | 0.00 | 0.00 | 63 | 1013.0 |
| 20260507115704 | 58 | 146 | 3.5 | 13.0 | 0.00 | 0.00 | 0.00 | 64 | 1013.0 |
| 20260507115205 | 58 | 264 | 5.2 | 13.0 | 0.00 | 0.00 | 0.00 | 66 | 1013.1 |
| 20260507114705 | 58 | 217 | 3.5 | 13.0 | 0.00 | 0.00 | 0.00 | 64 | 1013.2 |
| 20260507114205 | 58 | 137 | 4.3 | 12.2 | 0.00 | 0.00 | 0.00 | 67 | 1013.3 |
| 20260507113704 | 57 | 258 | 8.7 | 10.4 | 0.00 | 0.00 | 0.00 | 68 | 1013.3 |
| 20260507113204 | 56 | 157 | 5.2 | 11.3 | 0.00 | 0.00 | 0.00 | 69 | 1013.3 |
| 20260507112705 | 56 | 178 | 3.5 | 11.3 | 0.00 | 0.00 | 0.00 | 69 | 1013.3 |
| 20260507112205 | 56 | 163 | 4.3 | 11.3 | 0.00 | 0.00 | 0.00 | 69 | 1013.3 |
| 20260507111704 | 56 | 239 | 3.5 | 11.3 | 0.00 | 0.00 | 0.00 | 69 | 1013.4 |
| 20260507110704 | 56 | 227 | 6.1 | 10.4 | 0.00 | 0.00 | 0.00 | 72 | 1013.4 |
| 20260507110227 | 56 | 201 | 4.3 | 7.8 | 0.00 | 0.00 | 0.00 | 72 | 1013.5 |
| 20260507105704 | 56 | 215 | 4.3 | 7.8 | 0.00 | 0.00 | 0.00 | 71 | 1013.5 |
| 20260507105206 | 56 | 132 | 3.5 | 8.7 | 0.00 | 0.00 | 0.00 | 71 | 1013.6 |
| 20260507103704 | 56 | 168 | 2.6 | 10.4 | 0.00 | 0.00 | 0.00 | 72 | 1013.8 |
| 20260507103204 | 56 | 215 | 5.2 | 11.3 | 0.00 | 0.00 | 0.00 | 72 | 1013.9 |
| 20260507102705 | 56 | 133 | 5.2 | 13.0 | 0.00 | 0.00 | 0.00 | 71 | 1013.9 |
| 20260507102205 | 56 | 150 | 4.3 | 13.0 | 0.00 | 0.00 | 0.00 | 72 | 1014.0 |
| 20260507101705 | 55 | 164 | 7.0 | 13.0 | 0.00 | 0.00 | 0.00 | 72 | 1014.0 |
| 20260507101204 | 55 | 180 | 6.1 | 10.4 | 0.00 | 0.00 | 0.00 | 72 | 1014.2 |